TimeCDT,TemperatureF,Dew PointF,Humidity,Sea Level PressureIn,VisibilityMPH,Wind Direction,Wind SpeedMPH,Gust SpeedMPH,PrecipitationIn,Events,Conditions,WindDirDegrees,DateUTC
12:00 AM,71.6,66.2,83,29.96,10.0,SE,13.8,-,N/A,,Partly Cloudy,130,2013-07-29 05:00:00
12:20 AM,71.6,66.2,83,29.97,10.0,ESE,12.7,-,N/A,,Scattered Clouds,120,2013-07-29 05:20:00
12:40 AM,71.6,66.2,83,29.96,10.0,SE,15.0,-,N/A,,Partly Cloudy,130,2013-07-29 05:40:00
1:00 AM,69.8,66.2,88,29.96,10.0,ESE,11.5,-,N/A,,Clear,120,2013-07-29 06:00:00
1:20 AM,69.8,66.2,88,29.96,10.0,ESE,10.4,-,N/A,,Scattered Clouds,120,2013-07-29 06:20:00
1:40 AM,69.8,66.2,88,29.96,10.0,ESE,9.2,-,N/A,,Scattered Clouds,120,2013-07-29 06:40:00
2:00 AM,68.0,66.2,94,29.95,10.0,ESE,8.1,-,N/A,,Clear,110,2013-07-29 07:00:00
2:20 AM,68.0,66.2,94,29.95,10.0,ESE,8.1,-,N/A,,Clear,110,2013-07-29 07:20:00
2:40 AM,68.0,66.2,94,29.94,10.0,East,8.1,-,N/A,,Clear,100,2013-07-29 07:40:00
3:00 AM,68.0,66.2,94,29.94,10.0,East,9.2,-,N/A,,Clear,100,2013-07-29 08:00:00
3:20 AM,68.0,66.2,94,29.95,10.0,ESE,8.1,-,N/A,,Clear,110,2013-07-29 08:20:00
3:40 AM,68.0,66.2,94,29.95,10.0,East,4.6,-,N/A,,Clear,100,2013-07-29 08:40:00
4:00 AM,68.0,66.2,94,29.96,10.0,East,5.8,-,N/A,,Clear,80,2013-07-29 09:00:00
4:20 AM,68.0,66.2,94,29.96,10.0,ESE,6.9,-,N/A,,Clear,110,2013-07-29 09:20:00
4:40 AM,68.0,66.2,94,29.96,10.0,ESE,8.1,-,N/A,,Clear,110,2013-07-29 09:40:00
5:00 AM,68.0,66.2,94,29.95,10.0,East,6.9,-,N/A,,Clear,100,2013-07-29 10:00:00
5:20 AM,68.0,66.2,94,29.95,10.0,ESE,6.9,-,N/A,,Partly Cloudy,120,2013-07-29 10:20:00
5:40 AM,68.0,66.2,94,29.95,10.0,ESE,8.1,-,N/A,,Scattered Clouds,110,2013-07-29 10:40:00
6:00 AM,69.8,68.0,94,29.96,10.0,East,5.8,-,N/A,,Mostly Cloudy,90,2013-07-29 11:00:00
6:20 AM,69.8,68.0,94,29.96,10.0,ESE,5.8,-,N/A,,Overcast,110,2013-07-29 11:20:00
6:40 AM,69.8,68.0,94,29.96,10.0,ESE,8.1,-,N/A,,Mostly Cloudy,120,2013-07-29 11:40:00
7:00 AM,69.8,68.0,94,29.95,9.0,ESE,8.1,-,N/A,,Mostly Cloudy,120,2013-07-29 12:00:00
7:20 AM,69.8,68.0,94,29.95,7.0,ESE,8.1,-,N/A,,Overcast,120,2013-07-29 12:20:00
7:40 AM,69.8,68.0,94,29.95,8.0,ESE,9.2,-,N/A,,Overcast,120,2013-07-29 12:40:00
8:00 AM,71.6,68.0,88,29.95,9.0,SE,9.2,-,N/A,,Mostly Cloudy,130,2013-07-29 13:00:00
8:20 AM,71.6,68.0,88,29.95,9.0,SE,12.7,16.1,N/A,,Mostly Cloudy,140,2013-07-29 13:20:00
8:45 AM,73.4,68.0,83,29.95,10.0,SSE,13.8,19.6,N/A,,Mostly Cloudy,150,2013-07-29 13:45:00
9:00 AM,73.4,68.0,83,29.95,10.0,SSE,15.0,20.7,N/A,,Scattered Clouds,160,2013-07-29 14:00:00
9:20 AM,75.2,68.0,78,29.95,10.0,SSE,17.3,-,N/A,,Scattered Clouds,160,2013-07-29 14:20:00
9:40 AM,75.2,68.0,78,29.95,10.0,SSE,13.8,21.9,N/A,,Partly Cloudy,160,2013-07-29 14:40:00
10:05 AM,78.8,68.0,69,29.95,10.0,South,17.3,23.0,N/A,,Mostly Cloudy,180,2013-07-29 15:05:00
10:20 AM,80.6,69.8,70,29.95,10.0,South,17.3,-,N/A,,Scattered Clouds,180,2013-07-29 15:20:00
10:45 AM,82.4,69.8,66,29.94,10.0,South,19.6,23.0,N/A,,Scattered Clouds,170,2013-07-29 15:45:00
11:00 AM,84.2,71.6,66,29.93,10.0,South,18.4,-,N/A,,Scattered Clouds,180,2013-07-29 16:00:00
11:20 AM,84.2,71.6,66,29.93,10.0,South,20.7,24.2,N/A,,Scattered Clouds,170,2013-07-29 16:20:00
11:40 AM,86.0,71.6,62,29.92,10.0,South,18.4,28.8,N/A,,Scattered Clouds,180,2013-07-29 16:40:00
12:00 PM,87.8,71.6,58,29.92,10.0,South,18.4,26.5,N/A,,Scattered Clouds,180,2013-07-29 17:00:00
12:20 PM,86.0,69.8,58,29.92,10.0,SSW,17.3,26.5,N/A,,Scattered Clouds,200,2013-07-29 17:20:00
12:40 PM,87.8,71.6,58,29.92,10.0,South,20.7,27.6,N/A,,Mostly Cloudy,180,2013-07-29 17:40:00
1:05 PM,86.0,71.6,62,29.91,9.0,South,17.3,25.3,N/A,,Scattered Clouds,180,2013-07-29 18:05:00
1:25 PM,86.0,71.6,62,29.91,10.0,South,18.4,-,N/A,,Mostly Cloudy,170,2013-07-29 18:25:00
1:40 PM,87.8,71.6,58,29.90,10.0,South,17.3,23.0,N/A,,Overcast,170,2013-07-29 18:40:00
2:00 PM,87.8,71.6,58,29.90,10.0,South,17.3,21.9,N/A,,Mostly Cloudy,180,2013-07-29 19:00:00
2:20 PM,91.4,71.6,52,29.89,10.0,South,19.6,25.3,N/A,,Mostly Cloudy,180,2013-07-29 19:20:00
2:40 PM,91.4,71.6,52,29.89,9.0,South,18.4,26.5,N/A,,Partly Cloudy,180,2013-07-29 19:40:00
3:00 PM,91.4,71.6,52,29.89,9.0,South,18.4,24.2,N/A,,Scattered Clouds,180,2013-07-29 20:00:00
3:20 PM,91.4,73.4,55,29.87,10.0,SSE,19.6,27.6,N/A,,Scattered Clouds,160,2013-07-29 20:20:00
3:40 PM,91.4,71.6,52,29.86,9.0,South,21.9,28.8,N/A,,Scattered Clouds,180,2013-07-29 20:40:00
4:00 PM,91.4,73.4,55,29.85,10.0,South,18.4,26.5,N/A,,Mostly Cloudy,170,2013-07-29 21:00:00
4:20 PM,91.4,71.6,52,29.84,10.0,South,23.0,28.8,N/A,,Partly Cloudy,170,2013-07-29 21:20:00
4:45 PM,91.4,71.6,52,29.82,10.0,South,25.3,31.1,N/A,,Partly Cloudy,170,2013-07-29 21:45:00
5:00 PM,89.6,71.6,55,29.81,9.0,South,20.7,28.8,N/A,,Clear,170,2013-07-29 22:00:00
5:20 PM,89.6,71.6,55,29.82,9.0,South,21.9,26.5,N/A,Thunderstorm,Partly Cloudy,170,2013-07-29 22:20:00
5:40 PM,87.8,71.6,58,29.85,8.0,SSE,18.4,23.0,N/A,,Partly Cloudy,160,2013-07-29 22:40:00
6:00 PM,86.0,73.4,66,29.85,9.0,SE,16.1,23.0,N/A,Thunderstorm,Partly Cloudy,140,2013-07-29 23:00:00
6:20 PM,86.0,73.4,66,29.82,9.0,SSE,11.5,24.2,N/A,Thunderstorm,Partly Cloudy,160,2013-07-29 23:20:00
6:40 PM,73.4,68.0,83,29.90,4.0,NNW,27.6,38.0,N/A,Thunderstorm,Unknown,340,2013-07-29 23:40:00
7:00 PM,71.6,69.8,94,29.86,1.8,North,31.1,40.3,0.08,Rain-Thunderstorm,Thunderstorms and Rain,350,2013-07-30 00:00:00